THOR ABLESTAR DEB, 158

Orbit data source: Space-Track

THOR ABLESTAR DEB, 158 is space debris in LEO originally from a launch on Thu, 29 Jun 1961 UTC launched from the Air Force Eastern Test Range (AFETR). Debris objects in space refer to the collection of defunct objects orbiting the Earth. Examples of debris include non-operational satellites, rocket bodies, and fragments generated from explosions, collisions, or faulty payload assembly.

Loading next visibility...
Identifier
158, 1961-015AU
Orbit
LEO
Country
Flag of USUS
Related business
Manufacturer
Unknown
Mission
Spacecraft
Bus & Motor
Unknown
Mass
Unknown
Launch date (UTC)
1961-06-29 (65 years ago)
Launch vehicle
Unknown
Launch site
Air Force Eastern Test Range (AFETR)
Object type
Payload
Rocket body
Debris
Shape & HBR
Unknown shape, 0.2 m
Radar Cross Section
Medium (>0.1 m² and <1 m²)

Expand to show TLE details & history
Last TLE update: 6 hours ago

TLE from 6 hours ago
0 THOR ABLESTAR DEB
1 00158U 61015AU  26073.92832131  .00000098  00000-0  38442-3 0  9995
2 00158  67.0762  37.0847 0614481 301.1471  53.0664 12.66185049993416
Epoch: 2026-03-14T22:16Z
TLE epoch observation values (Epoch: 2026-03-14T22:16:46.961Z)
Latitude
-0.00005°
Longitude
-109.65346°
Altitude
1,132.197 km
Speed
7.411 km/s
True Right ascension
02h 28m 20s
True Declination
0° 00' 00"
Sunlit
Object was in daylight at epoch
Visualization orbit readout
Latitude
Unknown
Longitude
Unknown
Altitude
Unknown
Speed
Unknown
Apparent Right ascension
Unknown
Apparent Declination
Unknown
Sunlit
N/A
Visualization observer readout
Local Sidereal Time
08:28:58
Azimuth
Unknown
Elevation
Unknown
Doppler factor
Unknown
Orbital elements
Apogee altitude
1,873.677 km
Perigee altitude
918.268 km
Semi-major axis
7,774.109 km
Eccentricity
0.06145
Inclination
67.0762°
RAAN
37.0847°
Arg. of periapsis
301.1471°
True anomaly
58.95619°
Mean anomaly
53.0664°
Eccentric anomaly
55.98468°
Mean motion
3.16641 °/min
Orbital period
113.69 mins
BSTAR
0.00038442
Loading maneuver chart data...
Computing Atmospheric mass density...

Documentation

Showing up to 5 results
|